Louisville, KY

4:33 PM EDT on July 23, 2016 (GMT -0400)
Louisville International-Standiford

Weather History for KSDF - August, 2013

Change the Weather History Date:

Thursday, August 8, 2013

  Actual Average Record
Temperature  
Mean Temperature 82 °F 79 °F  
Max Temperature 88 °F 89 °F 102 °F (1930)
Min Temperature 75 °F 69 °F 53 °F (1989)
Degree Days  
Heating Degree Days 0 0  
Month to date heating degree days 0 0  
Since 1 June heating degree days 0 5  
Since 1 July heating degree days 0 0  
Cooling Degree Days 17 14  
Month to date cooling degree days 98 112  
Year to date cooling degree days 1035 1053  
Since 1 June cooling degree days 807 879  
Growing Degree Days 32 (Base 50)    
Moisture  
Dew Point 72 °F    
Average Humidity 74    
Maximum Humidity 88    
Minimum Humidity 59    
Precipitation  
Precipitation 0.01 in 0.12 in 3.32 in (1898)
Month to date precipitation 0.02 0.96  
Year to date precipitation 28.63 28.85  
Snow  
Snow 0.00 in 0.00 in - ()
Month to date snowfall 0.0 0.0  
Since 1 June snowfall 0.0 0.0  
Since 1 July snowfall 0.0 0.0  
Snow Depth 0.00 in    
Sea Level Pressure  
Sea Level Pressure 29.92 in    
Wind  
Wind Speed 7 mph (SSW)    
Max Wind Speed 14 mph    
Max Gust Speed 18 mph    
Visibility 10 miles    
Events Rain    
T = Trace of Precipitation, MM = Missing Value Source: NWS Daily Summary

Daily Weather History Graph

Daily Weather History Graph

Search for Another Location

Airport or City:

Trip Planner

Search our weather history database for the weather conditions in past years. The results will help you decide how hot, cold, wet, or windy it might be!

Date:

Astronomy

Aug. 08, 2013 Rise Set
Actual Time 6:51 AM EDT 8:44 PM EDT
Civil Twilight 6:23 AM EDT 9:13 PM EDT
Nautical Twilight 5:48 AM EDT 9:47 PM EDT
Astronomical Twilight 5:10 AM EDT 10:25 PM EDT
Moon 8:35 AM EDT (8/8) 9:25 PM EDT (8/8)
Length of Visible Light 14h 50m
Length of Day
13h 52m
Waxing Crescent, 3% of the Moon is Illuminated
Aug 8
Waxing Crescent
Aug 14
First Quarter
Aug 20
Full
Aug 28
Last Quarter
Sep 5
New

Hourly Weather History & Observations

Time (EDT) Temp. Heat Index Dew Point Humidity Pressure Visibility Wind Dir Wind Speed Gust Speed Precip Events Conditions
12:56 AM 79.0 °F - 73.0 °F 82% 29.93 in 10.0 mi SW 5.8 mph - N/A   Mostly Cloudy
1:56 AM 79.0 °F - 73.0 °F 82% 29.92 in 10.0 mi SSW 6.9 mph - N/A   Overcast
2:56 AM 78.1 °F - 73.0 °F 84% 29.92 in 10.0 mi South 5.8 mph - N/A   Mostly Cloudy
3:56 AM 77.0 °F - 73.0 °F 88% 29.91 in 10.0 mi ESE 5.8 mph - N/A   Mostly Cloudy
4:24 AM 77.0 °F - 73.4 °F 89% 29.92 in 10.0 mi SSE 6.9 mph - N/A   Mostly Cloudy
4:56 AM 77.0 °F - 72.0 °F 84% 29.91 in 10.0 mi SW 5.8 mph - N/A   Overcast
5:20 AM 77.0 °F - 71.6 °F 83% 29.93 in 10.0 mi SW 4.6 mph - N/A   Overcast
5:39 AM 75.2 °F - 71.6 °F 89% 29.92 in 10.0 mi SW 3.5 mph - N/A   Overcast
5:56 AM 75.9 °F - 72.0 °F 87% 29.91 in 10.0 mi Calm Calm - N/A   Mostly Cloudy
6:14 AM 75.2 °F - 71.6 °F 89% 29.92 in 10.0 mi Calm Calm - N/A   Mostly Cloudy
6:56 AM 75.0 °F - 71.1 °F 87% 29.92 in 10.0 mi South 4.6 mph - N/A   Mostly Cloudy
7:56 AM 75.9 °F - 72.0 °F 87% 29.92 in 10.0 mi ESE 4.6 mph - N/A   Mostly Cloudy
8:56 AM 77.0 °F - 72.0 °F 84% 29.93 in 10.0 mi South 5.8 mph - N/A   Scattered Clouds
9:16 AM 77.0 °F - 71.6 °F 83% 29.96 in 10.0 mi South 5.8 mph - N/A   Overcast
9:56 AM 78.1 °F - 72.0 °F 81% 29.95 in 10.0 mi South 5.8 mph - N/A   Overcast
10:06 AM 78.8 °F - 71.6 °F 78% 29.96 in 10.0 mi South 5.8 mph - N/A   Mostly Cloudy
10:25 AM 78.8 °F - 71.6 °F 78% 29.97 in 10.0 mi SSW 6.9 mph - N/A   Overcast
10:54 AM 80.6 °F 84.6 °F 71.6 °F 74% 29.97 in 10.0 mi South 6.9 mph - N/A   Mostly Cloudy
10:56 AM 81.0 °F 85.2 °F 72.0 °F 74% 29.96 in 10.0 mi South 8.1 mph - N/A   Mostly Cloudy
11:06 AM 80.6 °F 84.6 °F 71.6 °F 74% 29.97 in 10.0 mi South 6.9 mph - N/A   Mostly Cloudy
11:52 AM 82.4 °F 88.2 °F 73.4 °F 74% 29.97 in 10.0 mi South 9.2 mph - N/A   Mostly Cloudy
11:56 AM 82.9 °F 88.8 °F 73.0 °F 72% 29.96 in 10.0 mi South 9.2 mph - N/A   Mostly Cloudy
12:48 PM 84.2 °F 89.6 °F 71.6 °F 66% 29.97 in 10.0 mi South 8.1 mph - N/A   Overcast
12:56 PM 82.9 °F 88.0 °F 72.0 °F 69% 29.94 in 9.0 mi Variable 4.6 mph - N/A   Overcast
1:26 PM 87.8 °F 95.6 °F 73.4 °F 62% 29.94 in 8.0 mi South 6.9 mph - N/A   Mostly Cloudy
1:56 PM 84.9 °F 90.1 °F 71.1 °F 63% 29.91 in 10.0 mi South 8.1 mph - N/A   Overcast
2:56 PM 88.0 °F 95.6 °F 73.0 °F 61% 29.91 in 10.0 mi South 10.4 mph - N/A   Mostly Cloudy
3:56 PM 87.1 °F 93.6 °F 72.0 °F 61% 29.90 in 8.0 mi WSW 10.4 mph - N/A   Mostly Cloudy
4:56 PM 87.1 °F 93.6 °F 72.0 °F 61% 29.90 in 9.0 mi SW 11.5 mph - N/A   Mostly Cloudy
5:56 PM 86.0 °F 91.5 °F 71.1 °F 61% 29.88 in 10.0 mi SW 8.1 mph - N/A   Mostly Cloudy
6:56 PM 84.9 °F 90.1 °F 71.1 °F 63% 29.87 in 10.0 mi South 9.2 mph - N/A   Overcast
7:56 PM 84.0 °F 89.6 °F 72.0 °F 67% 29.87 in 10.0 mi SW 9.2 mph - N/A   Mostly Cloudy
8:56 PM 82.0 °F 87.9 °F 73.9 °F 76% 29.89 in 9.0 mi South 10.4 mph - N/A   Mostly Cloudy
9:08 PM 80.6 °F 85.4 °F 73.4 °F 79% 29.91 in 9.0 mi SW 9.2 mph - N/A   Mostly Cloudy
9:56 PM 80.1 °F 84.2 °F 73.0 °F 79% 29.92 in 9.0 mi SW 9.2 mph - N/A   Overcast
10:56 PM 79.0 °F - 73.0 °F 82% 29.93 in 9.0 mi SW 6.9 mph - N/A   Overcast
11:56 PM 78.1 °F - 73.0 °F 84% 29.92 in 10.0 mi SW 8.1 mph - N/A Rain Light Rain